HB0RER-13 Weather Reports


Display with metric or nautical units.
time (UTC)temp
F
wind
direction
speed
MPH
gust
MPH
rain 1hr
in
rain 24hr
in
rain mn
in
humidity
%
barometer
mb
20260502130626 74 315 2.0 7.0 0.00 0.00 0.00 36 1020.1
20260502123618 74 291 2.0 7.0 0.00 0.00 0.00 40 1020.5
20260502122615 74 258 2.0 4.0 0.00 0.00 0.00 38 1020.7
20260502121613 74 311 2.0 6.0 0.00 0.00 0.00 37 1020.8
20260502120612 74 270 2.0 4.0 0.00 0.00 0.00 38 1021.1
20260502115609 74 270 2.0 5.0 0.00 0.00 0.00 39 1021.2
20260502114607 73 270 2.0 6.0 0.00 0.00 0.00 38 1021.4
20260502113605 73 246 2.0 6.0 0.00 0.00 0.00 36 1021.5
20260502112604 73 282 2.0 6.0 0.00 0.00 0.00 38 1021.6
20260502111600 73 306 2.0 4.0 0.00 0.00 0.00 38 1021.8
20260502110559 73 270 2.0 4.0 0.00 0.00 0.00 40 1021.9
20260502105558 73 284 2.0 5.0 0.00 0.00 0.00 40 1022.0
20260502104615 73 270 2.0 4.0 0.00 0.00 0.00 40 1022.2
20260502103554 73 290 2.0 4.0 0.00 0.00 0.00 39 1022.3
20260502102551 73 316 2.0 4.0 0.00 0.00 0.00 39 1022.4
20260502101549 73 295 2.0 4.0 0.00 0.00 0.00 38 1022.5
20260502100547 73 301 2.0 4.0 0.00 0.00 0.00 40 1022.7
20260502090537 72 270 2.0 6.0 0.00 0.00 0.00 37 1023.1
20260502071534 67 204 2.0 6.0 0.00 0.00 0.00 45 1023.9
20260502070516 67 240 3.0 5.0 0.00 0.00 0.00 48 1024.0
20260502065509 67 251 3.0 6.0 0.00 0.00 0.00 50 1024.0
20260502064508 66 251 3.0 6.0 0.00 0.00 0.00 51 1024.1
20260502063527 65 257 4.0 6.0 0.00 0.00 0.00 51 1024.1
20260502062504 65 255 4.0 7.0 0.00 0.00 0.00 53 1024.1
20260502061523 64 256 3.0 6.0 0.00 0.00 0.00 57 1024.1
20260502060500 64 250 2.0 4.0 0.00 0.00 0.00 58 1024.1
20260502055457 62 261 2.0 4.0 0.00 0.00 0.00 61 1024.1
20260502054455 60 260 2.0 4.0 0.00 0.00 0.00 64 1024.1
20260502053453 59 262 2.0 4.0 0.00 0.00 0.00 68 1024.1
20260502052452 56 270 1.0 3.0 0.00 0.00 0.00 73 1024.1
20260502051450 53 270 2.0 3.0 0.00 0.00 0.00 76 1023.9
20260502050449 50 270 2.0 4.0 0.00 0.00 0.00 80 1023.9
20260502045445 47 270 2.0 4.0 0.00 0.00 0.00 79 1023.9
20260502044442 47 270 2.0 4.0 0.00 0.00 0.00 76 1023.9
20260502043441 47 270 2.0 4.0 0.00 0.00 0.00 75 1023.9
20260502042439 47 270 2.0 4.0 0.00 0.00 0.00 75 1023.9
20260502041437 47 270 2.0 4.0 0.00 0.00 0.00 75 1023.9
20260502040455 47 253 3.0 5.0 0.00 0.00 0.00 75 1023.7
20260502035433 47 253 3.0 5.0 0.00 0.00 0.00 75 1023.7
20260502034431 48 270 2.0 4.0 0.00 0.00 0.00 75 1023.8
20260502033430 48 231 1.0 4.0 0.00 0.00 0.00 74 1023.8
20260502032427 48 219 1.0 3.0 0.00 0.00 0.00 73 1023.8
20260502031425 48 250 2.0 4.0 0.00 0.00 0.00 74 1023.8
20260502030423 48 251 2.0 4.0 0.00 0.00 0.00 73 1023.8
20260502025422 49 216 1.0 3.0 0.00 0.00 0.00 73 1023.8
20260502024419 49 240 2.0 4.0 0.00 0.00 0.00 73 1023.8
20260502023417 49 254 2.0 4.0 0.00 0.00 0.00 73 1023.8
20260502022436 49 254 2.0 4.0 0.00 0.00 0.00 72 1023.8
20260502021413 49 253 2.0 4.0 0.00 0.00 0.00 73 1023.8
20260502020411 49 261 2.0 4.0 0.00 0.00 0.00 73 1023.7
20260502015410 49 244 2.0 4.0 0.00 0.00 0.00 73 1023.7
20260502014407 49 252 2.0 4.0 0.00 0.00 0.00 73 1023.7
20260502013405 49 238 2.0 4.0 0.00 0.00 0.00 72 1023.8
20260502012403 49 257 2.0 5.0 0.00 0.00 0.00 72 1023.9
20260502011401 49 238 2.0 4.0 0.00 0.00 0.00 72 1023.9
20260502010359 49 243 2.0 5.0 0.00 0.00 0.00 72 1023.8
20260502005357 49 248 2.0 5.0 0.00 0.00 0.00 71 1023.9
20260502004355 49 257 2.0 4.0 0.00 0.00 0.00 71 1024.0
20260502003353 50 241 1.0 2.0 0.00 0.00 0.00 71 1024.0
20260502002351 50 241 2.0 4.0 0.00 0.00 0.00 70 1024.0
20260502001350 50 256 2.0 4.0 0.00 0.00 0.00 70 1024.0
20260502000347 50 242 1.0 2.0 0.00 0.00 0.00 70 1024.1
20260501235345 50 237 2.0 4.0 0.00 0.00 0.00 70 1024.1
20260501234343 51 246 2.0 4.0 0.00 0.00 0.00 69 1024.1
20260501233401 51 244 2.0 3.0 0.00 0.00 0.00 69 1024.2
20260501232339 51 252 2.0 5.0 0.00 0.00 0.00 69 1024.1
20260501231336 52 257 2.0 4.0 0.00 0.00 0.00 69 1024.1
20260501230335 52 239 2.0 4.0 0.00 0.00 0.00 68 1024.1
20260501225353 52 249 2.0 3.0 0.00 0.00 0.00 68 1024.2
20260501224331 52 238 2.0 4.0 0.00 0.00 0.00 69 1024.2
20260501223329 52 240 2.0 4.0 0.00 0.00 0.00 69 1024.2
20260501222328 52 247 2.0 4.0 0.00 0.00 0.00 68 1024.3
20260501221324 53 252 2.0 4.0 0.00 0.00 0.00 67 1024.2
20260501220344 53 234 1.0 2.0 0.00 0.00 0.00 66 1024.2
20260501215321 53 228 1.0 2.0 0.00 0.00 0.00 65 1024.1
20260501214319 53 245 2.0 3.0 0.00 0.00 0.00 65 1024.1
20260501213318 53 239 2.0 4.0 0.00 0.00 0.00 65 1024.0
20260501212335 54 235 2.0 4.0 0.00 0.00 0.00 62 1024.0
20260501211314 54 220 2.0 4.0 0.00 0.00 0.00 59 1024.0
20260501210311 55 241 2.0 4.0 0.00 0.00 0.00 58 1023.9
20260501205330 55 250 2.0 4.0 0.00 0.00 0.00 58 1024.0
20260501204307 55 243 2.0 4.0 0.00 0.00 0.00 55 1023.9
20260501203307 56 240 1.0 4.0 0.00 0.00 0.00 53 1023.8
20260501202306 56 228 1.0 3.0 0.00 0.00 0.00 53 1023.8
20260501201303 57 225 1.0 3.0 0.00 0.00 0.00 52 1023.8
20260501200319 57 225 2.0 2.0 0.00 0.00 0.00 51 1023.7
20260501195300 58 215 1.0 3.0 0.00 0.00 0.00 50 1023.5
20260501194256 59 235 2.0 3.0 0.00 0.00 0.00 50 1023.3
20260501193256 59 231 2.0 4.0 0.00 0.00 0.00 49 1023.2
20260501192253 60 218 2.0 3.0 0.00 0.00 0.00 46 1023.1
20260501191251 61 221 2.0 4.0 0.00 0.00 0.00 45 1023.1
20260501190249 62 212 2.0 4.0 0.00 0.00 0.00 43 1023.0
20260501185245 63 223 2.0 4.0 0.00 0.00 0.00 41 1022.9
20260501184244 64 221 2.0 4.0 0.00 0.00 0.00 39 1022.8
20260501183241 64 227 2.0 4.0 0.00 0.00 0.00 38 1022.8
20260501182240 65 222 2.0 5.0 0.00 0.00 0.00 36 1022.7
20260501181237 66 212 2.0 4.0 0.00 0.00 0.00 36 1022.7
20260501180236 67 221 3.0 6.0 0.00 0.00 0.00 36 1022.6
20260501175233 68 225 3.0 6.0 0.00 0.00 0.00 35 1022.5
20260501174231 68 210 2.0 4.0 0.00 0.00 0.00 34 1022.5
20260501173231 69 227 2.0 4.0 0.00 0.00 0.00 34 1022.4
20260501172248 69 234 1.0 4.0 0.00 0.00 0.00 33 1022.5
20260501171246 70 246 2.0 4.0 0.00 0.00 0.00 33 1022.5
20260501170223 70 227 2.0 4.0 0.00 0.00 0.00 34 1022.5
20260501165221 71 235 2.0 4.0 0.00 0.00 0.00 29 1022.5
20260501164221 71 246 2.0 6.0 0.00 0.00 0.00 29 1022.6
20260501163218 71 283 2.0 4.0 0.00 0.00 0.00 28 1022.7
20260501162216 71 294 2.0 6.0 0.00 0.00 0.00 28 1022.7
20260501161214 71 253 2.0 4.0 0.00 0.00 0.00 28 1022.8
20260501160216 71 270 2.0 5.0 0.00 0.00 0.00 27 1022.8
20260501155210 71 300 2.0 6.0 0.00 0.00 0.00 27 1022.8
20260501154207 71 293 2.0 5.0 0.00 0.00 0.00 28 1023.0
20260501153224 71 288 2.0 5.0 0.00 0.00 0.00 28 1023.0
20260501152203 71 270 2.0 4.0 0.00 0.00 0.00 30 1023.0
20260501151201 71 270 2.0 6.0 0.00 0.00 0.00 31 1023.1
20260501150201 71 244 2.0 6.0 0.00 0.00 0.00 31 1023.3